Retour au catalogue

STARLINK-5044

ActifCommunicationsVLEO
NORAD 53898·PAYLOAD·🇺🇸 United States

Lancé Sep 24, 2022 depuis Cape Canaveral Space Force Station

Loading…

Prochains Passages (prochaines 24 heures)

TLE

FraisSource: CelesTrak SupGP

Époque: Sep 15, 2026, 02:31 UTC

1 53898C 22119N   26258.10534722 -.00009665  00000+0 -29331-3 0  2581
2 53898  53.1595 188.5428 0001710  87.4396 359.0421 15.33548042    15

Suivez STARLINK-5044 en temps réel avec AllMySat

Download on the App Store